Weather in Khodz

Russia / Republic of Adygea     44°30′56″N   40°42′37″E
temp.,
°C
wind,
m/s
gust,
m/s
humid.,
%
clouds,
%
prec.,
mm/h
press.,
hPa
HPBL,
m
21 april, wed
wed2100:00+11wnw248297 0.0 1013136
03:00+10nw118956 0.5 101421
06:00+9nne1291100 0.4 101763
09:00+9nne2390100 0.9 1019380
12:00+11ene2287100 0.5 1019554
15:00+10se2288100 0.8 1020264
18:00+11sse248954 0.0 1020221
21:00+9se239046 0.0 102158
22 april, thu
thu2200:00+8sse2290100 0.0 102119
03:00+8w1192100 0.0 102110
06:00+7wnw1194100 0.0 102222
09:00+11nw228367 0.0 1022563
12:00+12n2277100 0.1 1021802
15:00+13nnw1176100 0.1 1021579
18:00+12ne1188100 0.8 102158
21:00+9wsw1197100 6.4 102312
23 april, fri
fri2300:00+7sw22947 0.3 102313
03:00+7wsw22932 0.3 102314
06:00+6ssw22920 0.0 102517
09:00+12wsw11750 0.0 1023582
12:00+15nnw235823 0.0 10221531
15:00+16n335789 0.1 10211480
18:00+14ene237359 0.0 102081
21:00+10ese2376100 0.0 101942
24 april, sat
sat2400:00+10se2271100 0.0 101816
03:00+10wsw2377100 0.0 101843
06:00+10wsw238699 0.0 101991
09:00+13w126835 0.0 1019604
12:00+17nw475195 0.0 10181870
15:00+18nw585688 0.0 10171293
18:00+14nnw487096 0.0 1018365
21:00+10nw2676100 0.0 1021352
25 april, sun
sun2500:00+9nw1295100 0.0 102175
03:00+8n2294100 0.0 1020137
06:00+8n2394100 0.7 1020203
09:00+5n2392100 4.6 1020279
12:00+5ne2295100 9.1 1020339
15:00+5ne2396100 14.9 1019312
18:00+5nne3497100 4.9 1019353
21:00+5n3599100 7.1 1019356